Location: Forst
(49.4257°N, 8.1897°E)
Time: 08:06:38
(UTC+00:00)

Daily predictions for brighter satellites

Satellite Brightness Start Highest point End
(mag) Time Altitude Azimuth Time Altitude Azimuth Time Altitude Azimuth
Okean 2 Rocket 4.4 19:35:23 10° SSW 19:39:42 47° WNW 19:44:04 10° N
MetOp-B 4.2 19:34:27 10° SSE 19:39:49 84° ENE 19:45:12 10° NNW
Cosmos 1459 Rocket 4.3 19:35:33 10° SSW 19:41:45 73° WNW 19:47:53 10° N
Cosmos 1980 Rocket 3.2 19:37:23 10° NW 19:42:48 46° WSW 19:48:09 10° S
Cosmos 2061 Rocket 4.3 19:37:16 10° SSE 19:43:14 51° E 19:49:19 10° NNE
CZ-4 R/B 2.2 19:41:11 10° S 19:44:40 45° W 19:48:12 10° NNW
USA 186 2.6 19:43:12 10° SE 19:45:36 27° ENE 19:48:01 10° N
Cosmos 2228 2.9 19:41:45 10° S 19:45:49 63° E 19:49:53 10° NNE
COSMOS 2406 3.7 19:41:01 10° S 19:46:21 41° ESE 19:51:42 10° NE
Cosmos 2084 Rocket 4.3 19:43:42 10° NW 19:47:42 43° SW 19:51:43 10° SSE
SL-08 R/B 3.5 19:43:16 10° NNE 19:47:58 51° E 19:52:33 10° S
Cosmos 1743 3.1 19:46:22 10° NNW 19:49:17 46° W 19:52:11 10° S
ISS -3.3 19:46:09 10° W 19:49:28 63° N 19:52:48 10° ENE
Cosmos 1461 3.3 19:46:57 10° S 19:50:15 31° ESE 19:53:33 10° ENE
Cosmos 1455 Rocket 3.3 19:46:11 10° SSW 19:50:35 75° W 19:54:58 10° N
Cosmos 1992 Rocket 4.1 19:45:35 10° S 19:50:39 55° ESE 19:55:45 10° NNE
Cosmos 1892 Rocket 4.1 19:47:14 10° NNW 19:51:29 60° W 19:55:42 10° S
Cosmos 1802 Rocket 4.1 19:45:22 10° SSW 19:51:33 81° W 19:57:43 10° N
SKYMED 3 4.3 19:47:55 10° NNE 19:51:52 65° ESE 19:55:48 10° S
Terra 2.0 19:48:03 10° S 19:52:44 73° WSW 19:57:27 10° NNW
Okean O Rocket 1.7 19:53:06 10° SSE 19:57:20 61° ENE 20:01:35 10° N
Cosmos 2333 Rocket 2.5 19:53:20 10° NNW 19:58:58 58° NE 20:04:29 11° SE
NOSS 3-3 (A) 3.7 19:59:00 10° SW 20:04:11 83° SE 20:10:28 10° NE
Cosmos 1544 Rocket 4.0 20:00:17 10° SSE 20:04:23 43° E 20:08:29 10° NNE
Cosmos 1437 Rocket 3.3 20:03:36 10° SSE 20:06:50 34° E 20:10:08 10° NNE
Cosmos 2360 Rocket 2.9 20:03:31 10° NNW 20:08:56 43° NE 20:13:59 12° ESE
Helios 1A Rocket 3.1 20:06:14 10° N 20:09:19 51° WNW 20:12:22 10° SSW
CZ-4B R/B 3.8 20:07:33 10° S 20:13:06 58° WSW 20:18:39 10° NNW
Cosmos 2233 Rocket 4.1 20:08:56 10° S 20:15:07 84° W 20:21:19 10° N
Okean-O 2.6 20:15:07 10° SSE 20:19:30 83° WSW 20:23:54 10° NNW
Cosmos 1486 Rocket 4.4 20:14:25 10° NNW 20:19:35 53° ENE 20:23:55 14° SE
Cosmos 909 Rocket 4.1 20:15:07 10° SW 20:21:26 89° WNW 20:28:01 10° NE
Cosmos 1758 Rocket 3.5 20:17:09 10° N 20:21:35 85° E 20:25:51 11° S
Cosmos 2219 Rocket 3.2 20:16:23 10° NNW 20:21:36 36° NE 20:26:24 12° ESE
CZ-2C R/B 3.7 20:21:09 14° ESE 20:22:32 20° ENE 20:24:39 10° NNE
DNEPR-1 R/B 4.4 20:24:01 10° NW 20:29:28 83° NE 20:34:57 16° SE
Nadezhda 4 Rocket 4.4 20:24:54 10° N 20:30:47 46° ENE 20:35:26 16° SE
Meteor 1-25 Rocket 4.3 20:25:21 10° N 20:31:01 69° ENE 20:35:41 15° SSE
USA 245 4.3 20:25:40 12° SSE 20:31:03 75° ENE 20:36:31 10° N
IRS-1C Rocket 4.4 20:27:09 15° SE 20:31:26 56° ENE 20:36:35 10° N
Cosmos 1825 Rocket 4.4 20:30:08 10° N 20:34:09 35° ENE 20:36:52 18° SE
Cosmos 1805 3.3 20:31:39 10° N 20:34:49 43° ENE 20:36:34 22° SE
Cosmos 220 Rocket 3.9 20:32:45 10° S 20:36:43 57° ESE 20:40:45 10° NNE
NOSS 3-3 (C) 4.0 20:31:29 10° SW 20:36:47 76° NW 20:43:13 10° NE
Cosmos 2322 Rocket 2.3 20:35:55 10° NNW 20:41:36 74° ENE 20:45:49 19° SE
Cosmos 1602 Rocket 3.5 20:41:12 10° N 20:45:33 86° E 20:48:44 18° S
USA 306 3.8 20:43:19 10° WNW 20:45:42 23° N 20:47:23 10° NE
Cosmos 2082 Rocket 3.6 20:41:05 10° WSW 20:46:31 43° NW 20:51:57 10° NNE
NOSS 3-4 (A) 3.8 20:42:24 10° NW 20:49:05 87° SW 20:55:06 19° SE
NOSS 3-4 (C) 3.8 20:43:02 10° NW 20:49:44 88° SW 20:55:45 19° SE
Cosmos 1707 4.3 20:52:04 12° E 20:52:04 12° E 20:52:53 10° ENE
CZ-4B R/B 2.5 20:49:58 21° S 20:52:05 79° WSW 20:55:35 10° NNW
Cosmos 2151 3.5 20:51:45 10° NNW 20:55:45 52° W 20:59:05 14° SSW
Cosmos 2098 Rocket 3.0 20:53:24 16° S 20:57:07 69° E 21:01:11 10° NNE
Cosmos 1076 Rocket 4.0 20:54:09 10° N 20:58:14 44° ENE 21:00:20 25° SE
Cosmos 44 4.2 20:53:36 10° NNW 20:58:51 47° NE 21:02:45 17° ESE
Cosmos 2237 Rocket 4.5 20:55:38 10° N 20:59:08 16° NNE 21:02:38 10° ENE
CZ-4C R/B 4.4 20:56:18 10° WNW 21:00:25 26° NNW 21:05:30 10° NE
Ariane Rocket 3.0 20:59:02 20° SSE 21:02:38 84° WSW 21:07:44 10° NNW
Cosmos 2278 4.2 21:03:08 10° NW 21:08:42 55° WSW 21:12:37 19° S
SL-16 R/B 3.1 21:07:22 10° NW 21:12:38 41° WSW 21:16:43 16° S
SPOT 3 Rocket 4.0 21:09:24 16° S 21:13:20 55° W 21:18:24 10° NNW
COSMOS 2428 4.0 21:08:21 10° NNW 21:13:28 32° NE 21:17:37 14° ESE
Meteor 1-5 Rocket 4.4 21:07:44 10° NNW 21:13:32 80° W 21:17:38 21° S
Cosmos 1763 Rocket 3.6 21:10:53 20° S 21:14:27 56° ESE 21:19:37 10° NNE
USA 186 4.2 21:13:32 10° SW 21:15:02 14° W 21:16:32 10° WNW
USA 290 2.0 21:18:07 30° SSW 21:19:31 88° ESE 21:22:40 10° NNE
Cosmos 1606 Rocket 3.4 21:17:14 22° S 21:20:00 89° E 21:24:20 10° N
Cosmos 990 Rocket 3.9 21:18:08 10° NNW 21:23:20 82° ENE 21:26:04 29° SSE
Cosmos 1464 Rocket 4.0 21:18:41 15° S 21:23:58 85° WNW 21:30:12 10° N
Helios 1B rocket 3.5 21:24:22 21° E 21:25:22 25° ENE 21:28:17 10° N
CZ-4B R/B 4.0 21:23:16 20° SSW 21:26:22 49° W 21:31:06 10° NNW
ISS -3.5 21:23:08 10° WNW 21:26:29 66° N 21:28:15 25° E
Cosmos 1461 4.4 21:23:06 10° WSW 21:26:30 33° NW 21:29:52 10° NNE
Okean 1 2.9 21:25:54 33° S 21:27:25 88° W 21:31:02 10° N
Cosmos 1726 Rocket 3.2 21:25:49 31° S 21:27:40 78° E 21:31:44 10° NNE
BREEZE-M DEB (TANK) 1.2 21:26:03 10° W 21:28:12 64° W 21:28:12 64° W
Okean O Rocket 4.0 21:31:16 10° SW 21:33:55 16° W 21:36:36 10° NW
Cosmos 1536 3.1 21:32:34 10° N 21:36:08 45° ENE 21:36:59 37° ESE
Cosmos-2242 3.0 21:37:48 39° SSE 21:39:01 57° E 21:43:04 10° NNE
Cosmos 1092 Rocket 4.0 21:35:53 10° N 21:42:04 73° E 21:45:20 30° SSE
Cosmos 2333 Rocket 3.7 21:38:10 10° NW 21:42:55 28° WSW 21:46:30 15° SSW
KORONAS-FOTON 4.1 21:43:53 38° E 21:43:57 38° E 21:47:08 10° NNE
Cosmos 2297 Rocket 3.9 21:46:14 16° ESE 21:46:46 16° E 21:50:04 10° ENE
Cosmos 841 Rocket 4.5 21:47:27 27° ESE 21:48:24 29° E 21:52:51 10° NE
Cosmos 1833 4.2 21:44:13 13° SSW 21:49:16 87° WNW 21:54:56 10° NNE
Cosmos 2360 Rocket 3.1 21:47:40 10° NW 21:52:53 38° WSW 21:55:44 23° SSW
CZ-2C R/B 4.0 21:52:45 19° WSW 21:53:13 19° W 21:55:19 10° NW
Cosmos 1842 3.6 21:56:49 36° ENE 21:56:49 36° ENE 21:59:26 10° NNE
Cosmos 1766 2.6 21:53:15 10° NNW 21:56:29 77° W 21:56:45 69° SSW
Cosmos 2322 3.9 21:51:51 10° NNW 21:57:32 65° ENE 22:00:18 30° SE
Cosmos 1975 3.7 21:55:21 10° N 21:58:41 31° ENE 21:59:14 30° E
Cosmos 2034 Rocket 4.3 21:58:36 20° SSW 22:03:10 68° WNW 22:09:30 10° N
Cosmos 372 Rocket 3.9 21:58:21 10° NNW 22:03:29 81° ENE 22:05:24 39° SSE
Cosmos 2221 3.3 22:03:18 32° ESE 22:03:46 32° E 22:07:32 10° NNE
Cosmos 2219 Rocket 2.7 22:00:17 10° NW 22:05:41 48° WSW 22:08:05 30° SSW
Cosmos 1271 Rocket 2.9 22:06:21 43° E 22:06:21 43° E 22:09:24 10° NNE
SL-08 ROCKET BODY 4.5 22:04:40 10° N 22:10:52 73° ENE 22:13:38 35° SSE
Cosmos 540 Rocket 3.9 22:07:44 16° SW 22:11:43 59° WNW 22:16:50 10° NNE
Helios 1A 2.9 22:13:08 10° N 22:17:03 72° WNW 22:18:07 45° SW
Cosmos 2279 Rocket 4.0 22:16:40 35° SSE 22:19:24 70° E 22:25:38 10° NNE
RESURS DK-1 2.2 22:16:06 10° NNW 22:20:06 82° ENE 22:20:45 60° SE
Aureole 1 Rocket 4.2 22:15:46 10° NNW 22:21:33 61° WSW 22:24:34 33° S
Cosmos 1707 3.4 22:23:33 31° W 22:23:39 31° WNW 22:26:13 10° N
Cosmos 2322 Rocket 4.0 22:20:56 10° NW 22:25:02 21° W 22:27:37 15° SW
Cosmos 1634 Rocket 4.0 22:22:33 30° SSW 22:25:48 78° W 22:32:02 10° N
Cosmos 1937 Rocket 3.5 22:23:15 10° NNW 22:28:24 74° ENE 22:30:09 42° SE
TSX-5 3.9 22:27:10 10° NW 22:29:55 47° W 22:29:55 47° W
SL-16 R/B 4.3 22:28:15 10° N 22:32:31 21° NE 22:36:47 10° E
Cosmos 2058 Rocket 3.7 22:30:59 31° SW 22:32:39 48° WNW 22:36:52 10° N
Geosat 4.1 22:27:44 10° NNE 22:32:45 72° WNW 22:35:38 25° SW
Cosmos 468 Rocket 4.2 22:30:14 27° SW 22:33:07 68° WNW 22:38:22 10° NNE
CZ-2C R/B 3.6 22:28:50 10° NNE 22:33:18 69° ESE 22:34:15 52° SSE
GP-B 3.9 22:31:24 10° NNE 22:35:28 37° E 22:36:11 34° ESE
BREEZE-M DEB 4.5 22:32:44 10° WSW 22:37:32 64° SSE 22:52:05 10° E
Meteor 2-9 Rocket 4.1 22:34:07 10° NNW 22:39:33 84° W 22:41:24 43° S
Cosmos 44 4.2 22:34:58 10° NW 22:39:56 38° WSW 22:41:01 35° SW
CZ-2C R/B 3.7 22:39:09 22° ESE 22:41:39 34° ENE 22:46:19 10° N
Lacrosse 4 Rocket 3.1 22:42:43 19° E 22:42:43 19° E 22:44:52 10° ENE
Cosmos 2237 Rocket 2.6 22:38:50 10° NNW 22:44:28 59° ENE 22:47:09 30° ESE
SeaSat 1 4.3 22:43:16 10° E 22:47:13 25° NE 22:51:09 10° N
Cosmos 2266 Rocket 3.9 22:42:02 10° N 22:48:05 74° ENE 22:50:26 39° SSE
USA 234 3.6 22:41:59 10° ENE 22:48:08 41° SE 22:49:36 36° SSE
Cosmos 1980 3.9 22:43:05 10° NNW 22:48:44 67° ENE 22:51:12 34° SE
Cosmos 1470 3.1 22:46:22 10° NNW 22:49:19 43° W 22:49:19 43° W
Intercosmos 24 4.3 22:49:31 10° N 22:53:12 44° ENE 22:53:29 43° E
ARIANE 5 R/B 2.7 22:52:41 55° SSW 22:53:30 70° WSW 22:57:59 10° NNW
ALOS 2 2.5 22:54:46 59° S 22:55:33 80° WSW 22:59:59 10° NNW
Cosmos 2227 Rocket 3.5 22:55:50 23° ESE 22:56:43 24° ESE 23:01:08 10° NE
COSMOS 2428 3.0 22:52:26 10° NW 22:57:59 55° WSW 22:59:34 42° SSW
Helios 1B rocket 3.5 22:58:18 26° W 22:58:18 26° W 23:01:17 10° NW
Meteor 2-4 Rocket 4.3 23:00:13 34° SE 23:01:42 41° E 23:06:51 10° NNE
BlueWalker 3 4.2 23:05:22 13° E 23:05:22 13° E 23:05:56 10° ENE
ISS -1.7 23:00:02 10° WNW 23:01:11 19° W 23:01:11 19° W
Cosmos 1898 Rocket 4.0 22:58:28 10° NW 23:03:24 45° WSW 23:04:34 38° SW
Cosmos 2263 Rocket 3.9 23:03:56 17° ESE 23:04:54 17° E 23:08:27 10° ENE
CZ-2C R/B 3.6 23:01:59 10° NNE 23:07:39 55° E 23:09:26 40° SSE
Meteor 1-11 Rocket 3.7 23:02:46 10° NNW 23:08:25 76° W 23:10:10 45° S
Cosmos 1766 Rocket 3.8 23:05:07 10° N 23:09:21 55° ENE 23:10:08 47° ESE
SAR-Lupe-2 3.7 23:10:57 60° WNW 23:10:57 60° WNW 23:13:54 10° NNW
Meteor 1-10 Rocket 4.3 23:11:29 41° SSW 23:13:43 82° WNW 23:19:42 10° N
Cosmos 1238 Rocket 3.1 23:14:04 51° ESE 23:14:24 53° E 23:18:40 10° NNE
PSLV R/B 3.5 23:12:07 10° NNE 23:16:26 79° WNW 23:17:16 57° SW
Cosmos 1655 Rocket 4.1 23:15:21 10° N 23:21:36 68° ENE 23:24:15 36° SSE
Alouette 2 Rocket 3.7 23:23:23 10° N 23:27:13 70° ENE 23:28:18 49° SE
Meteor 1-27 Rocket 3.7 23:25:49 44° S 23:27:48 87° E 23:33:33 10° NNE
NOSS 0 Rocket 4.4 23:23:23 10° NW 23:29:12 45° WSW 23:30:48 37° SSW
Meteor 2-10 Rocket 4.0 23:24:23 10° N 23:29:54 61° ENE 23:32:13 35° SE
Cosmos 841 Rocket 4.2 23:27:23 26° WSW 23:29:57 47° WNW 23:35:01 10° NNE
Cosmos 2297 Rocket 2.1 23:27:59 43° SSW 23:29:58 89° ESE 23:35:40 10° NNE
Cosmos 1975 4.4 23:30:40 10° NW 23:33:28 21° W 23:33:29 21° W
SL-14 R/B 4.3 23:39:49 31° E 23:40:04 31° E 23:43:27 10° NNE
Cosmos 2221 4.0 23:39:35 22° W 23:40:50 26° WNW 23:44:24 10° NNW
Cosmos 158 Rocket 4.1 23:39:40 47° S 23:41:03 66° ESE 23:46:21 10° NNE
CZ-4C R/B 4.2 23:38:52 10° NNE 23:41:47 32° E 23:41:47 32° E
MetOp-A 4.0 23:42:38 48° SW 23:43:33 56° WSW 23:48:10 10° NNW
ACS3 Solar Sail 2.5 23:38:10 10° NNE 23:43:47 40° E 23:46:10 29° SE
Landsat 5 3.5 23:44:05 10° NNE 23:48:07 59° ESE 23:48:28 56° SE
